Regional Weather Roundup
Issued by NWS

Home | Current Version | Previous Version | Graphics & Text | Print | Product List | Glossary On
Versions: 1 2 3 4 5 6 7 8 9 10 11 12 13 14 15 16 17 18 19 20 21 22 23 24 25 26 27 28 29 30 31 32 33 34 35 36 37 38 39 40 41 42 43 44 45 46 47 48 49 50
000
ASUS43 KBIS 271302
RWRND

NORTH DAKOTA REGIONAL WEATHER ROUNDUP
NATIONAL WEATHER SERVICE BISMARCK ND
800 AM CDT THU JUL 27 2017

NOTE: "FAIR" INDICATES FEW OR NO CLOUDS BELOW 12,000 FEET WITH NO
SIGNIFICANT WEATHER AND/OR OBSTRUCTIONS TO VISIBILITY.


NDZ001>003-009>011-017-271400-
NORTHWEST NORTH DAKOTA

CITY           SKY/WX    TMP DP  RH WIND       PRES   REMARKS
WILLISTON      LGT RAIN  67  58  72 SE16G26   30.08F
MINOT          CLOUDY    70  58  65 S8        30.11S
MINOT AFB      MOSUNNY   68  60  74 S5        30.09F
$$

NDZ018>021-031>035-040>046-271400-
SOUTHWEST NORTH DAKOTA

CITY           SKY/WX    TMP DP  RH WIND       PRES   REMARKS
BISMARCK       CLOUDY    66  61  84 CALM      30.18F
DICKINSON      SUNNY     64  57  78 E16       30.12R
GARRISON         N/A     63  61  93 SE10      30.13F
HETTINGER ARPT SUNNY     65  53  65 SE7       30.13S
$$

NDZ004>008-012>016-024-026-027-054-271400-
NORTHEAST NORTH DAKOTA

CITY           SKY/WX    TMP DP  RH WIND       PRES   REMARKS
GRAND FORKS    CLOUDY    65  61  87 W3        30.12R
GRND FRKS AFB  CLOUDY    64  61  90 CALM      30.13R
DEVILS LAKE    CLOUDY    64  60  87 CALM      30.17S
$$

NDZ022-023-025-028>030-036>039-047>053-271400-
SOUTHEAST NORTH DAKOTA

CITY           SKY/WX    TMP DP  RH WIND       PRES   REMARKS
FARGO          SUNNY     64  60  87 NW5       30.13R
JAMESTOWN        N/A     64  61  90 CALM      30.16R
$$





USA.gov is the U.S. government's official web portal to all federal, state and local government web resources and services.